TimeCDT,TemperatureF,Dew PointF,Humidity,Sea Level PressureIn,VisibilityMPH,Wind Direction,Wind SpeedMPH,Gust SpeedMPH,PrecipitationIn,Events,Conditions,WindDirDegrees,DateUTC
12:53 AM,55.9,53.1,90,30.09,7.0,ESE,10.4,-,0.01,Rain,Light Rain,120,2013-10-29 05:53:00
1:53 AM,55.9,53.1,90,30.11,4.0,SSE,10.4,-,0.13,Rain,Heavy Rain,150,2013-10-29 06:53:00
2:20 AM,55.9,54.0,93,30.11,4.0,ESE,9.2,-,0.14,Rain-Thunderstorm,Thunderstorms and Rain,120,2013-10-29 07:20:00
2:31 AM,55.9,54.0,93,30.10,4.0,ESE,10.4,-,0.16,Rain-Thunderstorm,Rain,120,2013-10-29 07:31:00
2:44 AM,55.9,54.0,93,30.10,2.5,SE,10.4,-,0.23,Rain-Thunderstorm,Heavy Thunderstorms and Rain,140,2013-10-29 07:44:00
2:53 AM,55.9,55.0,97,30.08,1.8,SE,9.2,-,0.33,Rain-Thunderstorm,Heavy Rain,130,2013-10-29 07:53:00
3:00 AM,55.9,55.0,97,30.09,3.0,ESE,8.1,-,0.02,Rain-Thunderstorm,Rain,120,2013-10-29 08:00:00
3:26 AM,57.9,55.9,93,30.06,10.0,SE,16.1,23.0,0.04,,Overcast,140,2013-10-29 08:26:00
3:53 AM,57.9,55.9,93,30.02,10.0,ESE,16.1,24.2,0.04,,Overcast,110,2013-10-29 08:53:00
4:19 AM,57.9,55.9,93,30.01,9.0,ESE,15.0,23.0,N/A,Thunderstorm,Overcast,120,2013-10-29 09:19:00
4:27 AM,57.9,55.9,93,30.03,7.0,SE,11.5,20.7,0.01,Rain-Thunderstorm,Thunderstorms and Rain,130,2013-10-29 09:27:00
4:34 AM,57.9,55.9,93,30.04,2.5,SE,11.5,-,0.09,Rain,Heavy Rain,140,2013-10-29 09:34:00
4:36 AM,57.9,55.9,93,30.04,1.8,SE,15.0,19.6,0.17,Rain-Thunderstorm,Heavy Thunderstorms and Rain,140,2013-10-29 09:36:00
4:43 AM,57.0,55.9,96,30.03,1.0,SE,11.5,-,0.36,Rain,Heavy Rain,130,2013-10-29 09:43:00
4:53 AM,57.9,55.9,93,30.01,1.5,ESE,12.7,20.7,0.52,Rain,Heavy Rain,110,2013-10-29 09:53:00
4:58 AM,57.9,55.9,93,30.04,2.0,SE,8.1,20.7,0.05,Rain,Heavy Rain,130,2013-10-29 09:58:00
5:03 AM,57.9,55.9,93,30.05,1.8,ESE,8.1,-,0.15,Rain-Thunderstorm,Heavy Rain,120,2013-10-29 10:03:00
5:10 AM,57.0,55.9,96,30.04,1.2,ESE,12.7,18.4,0.31,Rain-Thunderstorm,Heavy Rain,120,2013-10-29 10:10:00
5:16 AM,57.0,55.9,96,30.05,3.0,SE,9.2,-,0.31,Rain-Thunderstorm,Light Rain,130,2013-10-29 10:16:00
5:20 AM,57.0,55.9,96,30.05,5.0,ESE,9.2,-,0.32,Rain,Light Rain,120,2013-10-29 10:20:00
5:29 AM,57.0,55.9,96,30.04,4.0,ESE,8.1,-,0.34,Rain,Light Rain,120,2013-10-29 10:29:00
5:38 AM,57.0,55.9,96,30.05,2.5,ESE,4.6,-,0.43,Rain,Heavy Rain,120,2013-10-29 10:38:00
5:53 AM,57.9,55.9,93,30.04,2.5,East,4.6,-,0.52,Rain,Heavy Rain,100,2013-10-29 10:53:00
6:02 AM,57.0,55.9,96,30.04,6.0,East,8.1,-,0.00,Rain,Light Rain,100,2013-10-29 11:02:00
6:53 AM,57.9,57.0,97,30.04,6.0,Variable,3.5,-,0.27,Rain,Light Rain,0,2013-10-29 11:53:00
7:53 AM,57.9,57.0,97,30.03,5.0,SE,8.1,-,0.01,Rain,Light Rain,140,2013-10-29 12:53:00
8:53 AM,61.0,59.0,93,30.03,7.0,South,12.7,21.9,0.00,,Overcast,170,2013-10-29 13:53:00
9:08 AM,61.0,59.0,93,30.08,6.0,NW,8.1,-,N/A,,Mostly Cloudy,320,2013-10-29 14:08:00
9:53 AM,59.0,57.9,96,30.07,3.0,East,4.6,-,0.07,Rain,Light Rain,80,2013-10-29 14:53:00
9:59 AM,59.0,57.9,96,30.08,4.0,East,4.6,-,0.00,Rain,Light Rain,80,2013-10-29 14:59:00
10:34 AM,59.0,57.9,96,30.08,2.0,Variable,5.8,-,0.13,Rain,Light Rain,0,2013-10-29 15:34:00
10:53 AM,59.0,57.9,96,30.06,3.0,East,5.8,-,0.15,Rain,Light Rain,80,2013-10-29 15:53:00
11:53 AM,61.0,60.1,97,30.05,4.0,SE,5.8,-,0.01,Rain,Light Rain,130,2013-10-29 16:53:00
12:53 PM,64.0,62.1,93,30.02,3.0,SSE,9.2,-,0.03,Rain,Rain,160,2013-10-29 17:53:00
1:53 PM,64.0,63.0,96,29.99,6.0,SSE,5.8,-,0.05,,Overcast,150,2013-10-29 18:53:00
2:48 PM,66.2,64.4,94,29.98,8.0,South,10.4,-,N/A,Thunderstorm,Overcast,190,2013-10-29 19:48:00
2:53 PM,64.9,63.0,93,29.96,6.0,South,9.2,-,0.00,Rain-Thunderstorm,Light Thunderstorms and Rain,180,2013-10-29 19:53:00
3:11 PM,66.0,64.0,93,29.98,6.0,SSW,8.1,-,0.02,Rain,Light Rain,210,2013-10-29 20:11:00
3:53 PM,66.0,64.0,93,29.96,6.0,South,12.7,-,0.02,,Overcast,190,2013-10-29 20:53:00
4:36 PM,66.0,64.0,93,29.99,2.5,South,10.4,-,0.00,Rain,Light Rain,190,2013-10-29 21:36:00
4:50 PM,66.2,64.4,94,29.99,2.5,South,9.2,-,0.00,Rain,Light Rain,180,2013-10-29 21:50:00
4:53 PM,66.0,64.9,96,29.97,3.0,South,11.5,-,0.00,Rain,Light Rain,190,2013-10-29 21:53:00
5:53 PM,66.0,64.0,93,29.95,6.0,SSE,16.1,21.9,0.00,,Mostly Cloudy,160,2013-10-29 22:53:00
6:53 PM,66.0,64.0,93,29.97,7.0,South,9.2,-,N/A,,Partly Cloudy,180,2013-10-29 23:53:00
7:53 PM,66.0,64.0,93,29.99,8.0,South,11.5,-,N/A,,Clear,170,2013-10-30 00:53:00
8:53 PM,66.0,64.0,93,29.99,9.0,South,10.4,-,N/A,,Scattered Clouds,170,2013-10-30 01:53:00
9:53 PM,66.0,64.0,93,30.00,9.0,South,11.5,-,N/A,,Scattered Clouds,180,2013-10-30 02:53:00
10:11 PM,66.9,64.0,90,30.02,10.0,South,12.7,-,N/A,,Mostly Cloudy,180,2013-10-30 03:11:00
10:53 PM,68.0,64.0,87,30.01,10.0,South,12.7,-,N/A,,Overcast,180,2013-10-30 03:53:00
11:49 PM,66.2,64.4,94,30.03,10.0,South,10.4,-,N/A,,Mostly Cloudy,180,2013-10-30 04:49:00
11:53 PM,66.9,64.0,90,30.01,10.0,South,10.4,-,N/A,,Mostly Cloudy,180,2013-10-30 04:53:00